CSG-2

Last updated on Tue Oct 28 2025 00:02:31 GMT+0000 (Coordinated Universal Time)

1 51444U 22008A 25300.51143282 .00000861 00000+0 11480-3 0 9997 2 51444 97.8895 122.5204 0001480 85.8103 274.3280 14.82141167202128
UTC large
Height (km)
Speed (km/s)
/
Latitude / Longitude
Inclination (degrees)
Orbital Period (minutes)
Azimuth
Elevation
Range (km)
Doppler Factor

Next 0 passes for location: London (51.5072 / 0.1276)

Sorry there are no passes over London.